Total_Precipitation_Accumulation
0.04 0.05 0.02 0.01 0.01 0.01 0.01 0.01 0.02 0.03 0.02 0.02 0.00 0.00 0.01 0.01 0.00 0.00 0.00 0.00 0.00 0.00
0.03 0.03 0.03 0.01 0.01 0.01 0.01 0.01 0.02 0.02 0.03 0.02 0.01 0.00 0.00 0.00 0.01 0.01 0.00 0.00 0.00 0.00
0.03 0.03 0.02 0.04 0.02 0.01 0.01 0.01 0.01 0.01 0.01 0.02 0.02 0.01 0.00 0.00 0.00 0.00 0.01 0.00 0.00 0.00
0.05 0.03 0.02 0.03 0.02 0.01 0.01 0.00 0.00 0.00 0.01 0.01 0.02 0.02 0.02 0.01 0.01 0.01 0.00 0.01 0.00 0.00
0.07 0.05 0.03 0.02 0.01 0.01 0.01 0.01 0.00 0.00 0.05 0.06 0.04 0.03 0.04 0.05 0.04 0.02 0.01 0.00 0.00 0.00
0.06 0.05 0.04 0.02 0.01 0.01 0.01 0.01 0.02 0.01 0.02 0.04 0.05 0.07 0.08 0.08 0.08 0.07 0.05 0.04 0.03 0.02
0.08 0.05 0.04 0.02 0.01 0.01 0.01 0.00 0.00 0.01 0.02 0.03 0.03 0.04 0.08 0.11 0.08 0.05 0.06 0.08 0.08 0.10
0.11 0.08 0.05 0.03 0.02 0.01 0.01 0.01 0.00 0.00 0.00 0.01 0.01 0.02 0.04 0.04 0.06 0.07 0.06 0.05 0.06 0.08
0.26 0.14 0.10 0.06 0.04 0.02 0.01 0.01 0.00 0.00 0.00 0.00 0.01 0.10 0.07 0.05 0.03 0.04 0.06 0.05 0.04 0.05
0.23 0.32 0.19 0.12 0.09 0.04 0.02 0.01 0.00 0.02 0.02 0.01 0.00 0.03 0.03 0.05 0.03 0.03 0.06 0.08 0.08 0.06
0.21 0.23 0.35 0.30 0.19 0.18 0.08 0.02 0.01 0.03 0.02 0.04 0.10 0.10 0.10 0.12 0.07 0.08 0.09 0.12 0.13 0.12
0.43 0.35 0.27 0.37 0.36 0.27 0.25 0.16 0.06 0.04 0.06 0.07 0.07 0.09 0.08 0.11 0.09 0.11 0.14 0.16 0.18 0.24
0.42 0.49 0.43 0.31 0.37 0.41 0.34 0.36 0.29 0.16 0.10 0.14 0.10 0.13 0.08 0.05 0.03 0.04 0.06 0.18 0.24 0.26
0.26 0.33 0.51 0.52 0.41 0.47 0.48 0.42 0.38 0.39 0.27 0.15 0.13 0.14 0.16 0.11 0.03 0.03 0.06 0.04 0.03 0.02